| time (UTC) | temp C | wind direction | speed KPH | gust KPH | rain 1hr cm | rain 24hr cm | rain mn cm | humidity % | barometer mb |
| 20260905202016 | 24 | 0 | 9.7 | 0.0 | 0.00 | 0.61 | 0.00 | 42 | |
| 20260905201016 | 25 | 0 | 4.8 | 0.0 | 0.00 | 0.61 | 0.00 | 42 | |
| 20260905200016 | 26 | 0 | 1.6 | 0.0 | 0.00 | 0.61 | 0.00 | 42 | |
| 20260905194946 | 25 | 0 | 8.0 | 0.0 | 0.00 | 0.61 | 0.00 | 45 | |
| 20260905193946 | 25 | 0 | 3.2 | 0.0 | 0.00 | 0.61 | 0.00 | 46 | |
| 20260905192916 | 24 | 0 | 6.4 | 0.0 | 0.00 | 0.61 | 0.00 | 48 | |
| 20260905191846 | 24 | 0 | 8.0 | 0.0 | 0.00 | 0.61 | 0.00 | 48 | |
| 20260905190846 | 24 | 0 | 3.2 | 0.0 | 0.00 | 0.61 | 0.00 | 49 | |
| 20260905185816 | 24 | 0 | 1.6 | 0.0 | 0.00 | 0.61 | 0.00 | 49 | |
| 20260905184816 | 23 | 0 | 1.6 | 0.0 | 0.00 | 0.61 | 0.00 | 51 | |
| 20260905183746 | 23 | 0 | 4.8 | 0.0 | 0.00 | 0.61 | 0.00 | 52 | |
| 20260905182746 | 23 | 0 | 12.9 | 0.0 | 0.00 | 0.61 | 0.00 | 53 | |
| 20260905181716 | 23 | 0 | 11.3 | 0.0 | 0.00 | 0.61 | 0.00 | 52 | |
| 20260905180716 | 23 | 0 | 9.7 | 0.0 | 0.00 | 0.61 | 0.00 | 52 | |
| 20260905175716 | 23 | 0 | 6.4 | 0.0 | 0.00 | 0.61 | 0.00 | 53 | |
| 20260905174716 | 22 | 0 | 3.2 | 0.0 | 0.00 | 0.61 | 0.00 | 55 | |
| 20260905173646 | 22 | 0 | 3.2 | 0.0 | 0.00 | 0.61 | 0.00 | 57 | |
| 20260905172616 | 21 | 0 | 3.2 | 0.0 | 0.00 | 0.61 | 0.00 | 58 | |
| 20260905171616 | 21 | 0 | 3.2 | 0.0 | 0.00 | 0.61 | 0.00 | 61 | |
| 20260905170616 | 20 | 0 | 1.6 | 0.0 | 0.00 | 0.61 | 0.00 | 58 | |
| 20260905165616 | 19 | 0 | 0.0 | 0.0 | 0.00 | 0.61 | 0.00 | 61 | |
| 20260905164616 | 18 | 0 | 0.0 | 0.0 | 0.00 | 0.61 | 0.00 | 67 | |
| 20260905163615 | 18 | 0 | 0.0 | 0.0 | 0.00 | 0.61 | 0.00 | 70 | |
| 20260905162615 | 17 | 0 | 0.0 | 0.0 | 0.00 | 0.61 | 0.00 | 74 | |
| 20260905161546 | 16 | 0 | 0.0 | 0.0 | 0.00 | 0.61 | 0.00 | 77 | |
| 20260905160546 | 16 | 0 | 0.0 | 0.0 | 0.00 | 0.61 | 0.00 | 81 | |
| 20260905155516 | 15 | 0 | 0.0 | 0.0 | 0.00 | 0.61 | 0.00 | 87 | |
| 20260905154446 | 13 | 0 | 0.0 | 0.0 | 0.00 | 0.61 | 0.00 | 97 | |
| 20260905153446 | 12 | 0 | 0.0 | 0.0 | 0.00 | 0.61 | 0.00 | 99 | |
| 20260905152446 | 12 | 0 | 0.0 | 0.0 | 0.00 | 0.61 | 0.00 | 99 | |
| 20260905151416 | 11 | 0 | 0.0 | 0.0 | 0.00 | 0.61 | 0.00 | 99 | |
| 20260905150346 | 11 | 0 | 0.0 | 0.0 | 0.00 | 0.61 | 0.00 | 99 | |
| 20260905145346 | 10 | 0 | 0.0 | 0.0 | 0.00 | 0.61 | 0.00 | 99 | |
| 20260905144316 | 8 | 0 | 0.0 | 0.0 | 0.00 | 0.61 | 0.00 | 99 | |
| 20260905143316 | 7 | 0 | 0.0 | 0.0 | 0.00 | 0.61 | 0.00 | 99 | |
| 20260905142316 | 7 | 0 | 0.0 | 0.0 | 0.00 | 0.61 | 0.00 | 99 | |
| 20260905141246 | 7 | 0 | 0.0 | 0.0 | 0.00 | 0.61 | 0.00 | 99 | |
| 20260905140215 | 7 | 0 | 0.0 | 0.0 | 0.00 | 0.61 | 0.00 | 99 | |
| 20260905135146 | 7 | 0 | 0.0 | 0.0 | 0.00 | 0.61 | 0.00 | 99 | |
| 20260905134146 | 7 | 0 | 0.0 | 0.0 | 0.00 | 0.61 | 0.00 | 99 | |
| 20260905133116 | 7 | 0 | 0.0 | 0.0 | 0.00 | 0.61 | 0.00 | 99 | |
| 20260905132115 | 7 | 0 | 0.0 | 0.0 | 0.00 | 0.61 | 0.00 | 99 | |
| 20260905131116 | 7 | 0 | 0.0 | 0.0 | 0.00 | 0.61 | 0.00 | 99 | |
| 20260905130116 | 7 | 0 | 0.0 | 0.0 | 0.00 | 0.61 | 0.00 | 99 | |
| 20260905125046 | 7 | 0 | 0.0 | 0.0 | 0.00 | 0.61 | 0.00 | 99 | |
| 20260905124016 | 7 | 0 | 0.0 | 0.0 | 0.00 | 0.61 | 0.00 | 99 | |
| 20260905123016 | 7 | 0 | 0.0 | 0.0 | 0.00 | 0.61 | 0.00 | 99 | |
| 20260905122016 | 7 | 0 | 0.0 | 0.0 | 0.00 | 0.61 | 0.00 | 99 | |
| 20260905121016 | 7 | 0 | 0.0 | 0.0 | 0.00 | 0.61 | 0.00 | 99 | |
| 20260905120016 | 7 | 0 | 0.0 | 0.0 | 0.00 | 0.61 | 0.00 | 99 | |
| 20260905114945 | 7 | 0 | 0.0 | 0.0 | 0.00 | 0.61 | 0.00 | 99 | |
| 20260905113916 | 7 | 0 | 0.0 | 0.0 | 0.00 | 0.61 | 0.00 | 99 | |
| 20260905112846 | 7 | 0 | 0.0 | 0.0 | 0.00 | 0.61 | 0.00 | 99 | |
| 20260905111923 | 7 | 0 | 0.0 | 0.0 | 0.00 | 0.61 | 0.00 | 99 | |
| 20260905111846 | 7 | 0 | 0.0 | 0.0 | 0.00 | 0.61 | 0.00 | 99 | |
| 20260905110816 | 7 | 0 | 0.0 | 0.0 | 0.00 | 0.61 | 0.00 | 99 | |
| 20260905105815 | 7 | 0 | 0.0 | 0.0 | 0.00 | 0.61 | 0.00 | 99 | |
| 20260905104815 | 8 | 0 | 0.0 | 0.0 | 0.00 | 0.61 | 0.00 | 99 | |
| 20260905103745 | 8 | 0 | 0.0 | 0.0 | 0.00 | 0.61 | 0.00 | 99 | |
| 20260905102716 | 8 | 0 | 0.0 | 0.0 | 0.00 | 0.61 | 0.00 | 99 | |
| 20260905101716 | 8 | 0 | 0.0 | 0.0 | 0.00 | 0.61 | 0.00 | 99 | |
| 20260905100716 | 8 | 0 | 0.0 | 0.0 | 0.00 | 0.61 | 0.00 | 99 | |
| 20260905095716 | 8 | 0 | 0.0 | 0.0 | 0.00 | 0.61 | 0.00 | 99 | |
| 20260905094716 | 8 | 0 | 0.0 | 0.0 | 0.00 | 0.61 | 0.00 | 99 | |
| 20260905093715 | 8 | 0 | 0.0 | 0.0 | 0.00 | 0.61 | 0.00 | 99 | |
| 20260905092646 | 8 | 0 | 0.0 | 0.0 | 0.00 | 0.61 | 0.00 | 99 | |
| 20260905091646 | 8 | 0 | 0.0 | 0.0 | 0.00 | 0.61 | 0.00 | 99 | |
| 20260905090646 | 8 | 0 | 0.0 | 0.0 | 0.00 | 0.61 | 0.00 | 99 | |
| 20260905085646 | 8 | 0 | 0.0 | 0.0 | 0.00 | 0.61 | 0.00 | 99 | |
| 20260905084615 | 8 | 0 | 0.0 | 0.0 | 0.00 | 0.61 | 0.00 | 99 | |
| 20260905083546 | 8 | 0 | 0.0 | 0.0 | 0.00 | 0.61 | 0.00 | 99 | |
| 20260905082545 | 9 | 0 | 0.0 | 0.0 | 0.00 | 0.61 | 0.00 | 99 | |
| 20260905081545 | 9 | 0 | 0.0 | 0.0 | 0.00 | 0.61 | 0.00 | 99 | |
| 20260905080547 | 9 | 0 | 0.0 | 0.0 | 0.00 | 0.61 | 0.00 | 99 | |
| 20260905080516 | 9 | 0 | 0.0 | 0.0 | 0.00 | 0.61 | 0.00 | 99 | |
| 20260905075445 | 9 | 0 | 0.0 | 0.0 | 0.00 | 0.61 | 0.00 | 99 | |
| 20260905074445 | 9 | 0 | 0.0 | 0.0 | 0.00 | 0.61 | 0.00 | 98 | |
| 20260905073446 | 10 | 0 | 0.0 | 0.0 | 0.00 | 0.61 | 0.00 | 98 | |
| 20260905072415 | 10 | 0 | 0.0 | 0.0 | 0.00 | 0.61 | 0.00 | 97 | |
| 20260905071346 | 10 | 0 | 0.0 | 0.0 | 0.00 | 0.61 | 0.00 | 97 | |
| 20260905070316 | 10 | 0 | 0.0 | 0.0 | 0.00 | 0.61 | 0.00 | 97 | |
| 20260905065245 | 10 | 0 | 0.0 | 0.0 | 0.00 | 0.61 | 0.61 | 97 | |
| 20260905064215 | 10 | 0 | 0.0 | 0.0 | 0.00 | 0.61 | 0.61 | 97 | |
| 20260905063146 | 10 | 0 | 0.0 | 0.0 | 0.00 | 0.61 | 0.61 | 97 | |
| 20260905062146 | 11 | 0 | 0.0 | 0.0 | 0.00 | 0.61 | 0.61 | 96 | |
| 20260905061116 | 11 | 0 | 0.0 | 0.0 | 0.00 | 0.61 | 0.61 | 95 | |
| 20260905060116 | 11 | 0 | 0.0 | 0.0 | 0.00 | 0.61 | 0.61 | 95 | |
| 20260905055115 | 11 | 0 | 0.0 | 0.0 | 0.00 | 0.61 | 0.61 | 94 | |
| 20260905054046 | 11 | 0 | 0.0 | 0.0 | 0.00 | 0.61 | 0.61 | 93 | |
| 20260905053015 | 11 | 0 | 0.0 | 0.0 | 0.00 | 0.61 | 0.61 | 93 | |
| 20260905052015 | 12 | 0 | 0.0 | 0.0 | 0.00 | 0.61 | 0.61 | 93 | |
| 20260905050946 | 12 | 0 | 0.0 | 0.0 | 0.00 | 0.61 | 0.61 | 90 | |
| 20260905045916 | 12 | 0 | 0.0 | 0.0 | 0.00 | 0.61 | 0.61 | 89 | |
| 20260905044916 | 12 | 0 | 0.0 | 0.0 | 0.00 | 0.61 | 0.61 | 88 | |
| 20260905043845 | 12 | 0 | 0.0 | 0.0 | 0.00 | 0.61 | 0.61 | 87 | |
| 20260905042846 | 13 | 0 | 0.0 | 0.0 | 0.00 | 0.64 | 0.61 | 87 | |
| 20260905041845 | 13 | 0 | 0.0 | 0.0 | 0.00 | 0.66 | 0.61 | 83 | |
| 20260905040845 | 13 | 0 | 0.0 | 0.0 | 0.00 | 0.69 | 0.61 | 83 | |
| 20260905035846 | 14 | 0 | 0.0 | 0.0 | 0.00 | 0.69 | 0.61 | 80 | |
| 20260905034845 | 14 | 0 | 0.0 | 0.0 | 0.00 | 0.71 | 0.61 | 81 | |
| 20260905033846 | 15 | 0 | 0.0 | 0.0 | 0.00 | 0.71 | 0.61 | 78 | |
| 20260905032815 | 15 | 0 | 0.0 | 0.0 | 0.00 | 0.71 | 0.61 | 77 | |
| 20260905031746 | 16 | 0 | 0.0 | 0.0 | 0.00 | 0.71 | 0.61 | 73 | |
| 20260905030716 | 16 | 0 | 0.0 | 0.0 | 0.00 | 0.71 | 0.61 | 72 | |
| 20260905025716 | 17 | 0 | 0.0 | 0.0 | 0.00 | 0.71 | 0.61 | 69 | |
| 20260905024715 | 17 | 0 | 0.0 | 0.0 | 0.00 | 0.71 | 0.61 | 68 | |
| 20260905023646 | 18 | 0 | 0.0 | 0.0 | 0.00 | 0.71 | 0.61 | 65 | |
| 20260905022646 | 20 | 0 | 0.0 | 0.0 | 0.00 | 0.71 | 0.61 | 61 | |
| 20260905021615 | 20 | 0 | 0.0 | 0.0 | 0.00 | 0.71 | 0.61 | 58 | |
| 20260905020615 | 21 | 0 | 0.0 | 0.0 | 0.00 | 0.71 | 0.61 | 56 | |
| 20260905015615 | 21 | 0 | 3.2 | 0.0 | 0.00 | 0.71 | 0.61 | 53 | |
| 20260905014545 | 21 | 0 | 4.8 | 0.0 | 0.00 | 0.71 | 0.61 | 52 | |
| 20260905013545 | 22 | 0 | 4.8 | 0.0 | 0.00 | 0.71 | 0.61 | 48 | |
| 20260905012516 | 22 | 0 | 4.8 | 0.0 | 0.00 | 0.71 | 0.61 | 47 | |
| 20260905011515 | 22 | 0 | 3.2 | 0.0 | 0.00 | 0.71 | 0.61 | 45 | |
| 20260905010446 | 22 | 0 | 1.6 | 0.0 | 0.00 | 0.71 | 0.61 | 46 | |
| 20260904222515 | 26 | 0 | 8.0 | 0.0 | 0.61 | 0.71 | 0.61 | 45 | |
| 20260904221515 | 26 | 0 | 3.2 | 0.0 | 0.61 | 0.71 | 0.61 | 46 | |
| 20260904220515 | 26 | 0 | 4.8 | 0.0 | 0.00 | 0.10 | 0.00 | 47 |